Radiation Dose at Monitoring Post of Fukushima Daini Nuclear Power Station
Date,Time,MP-1(microSv/h),MP-2(microSv/h),MP-3(microSv/h),MP-4(microSv/h),MP-5(microSv/h),MP-6(microSv/h),MP-7(microSv/h),Wind Direction,Wind Velocity(m/s),Rain
2017/12/08,00:00,0.333,0.211,0.344,0.325,0.310,0.171,0.102,west-southwest,5.6,No
2017/12/08,00:10,0.333,0.211,0.342,0.324,0.312,0.170,0.101,west-southwest,6.4,No
2017/12/08,00:20,0.335,0.210,0.343,0.323,0.309,0.170,0.101,west-southwest,7.0,No
2017/12/08,00:30,0.334,0.210,0.343,0.322,0.309,0.170,0.102,west-southwest,5.9,No
2017/12/08,00:40,0.334,0.211,0.344,0.325,0.309,0.171,0.101,west-southwest,5.3,No
2017/12/08,00:50,0.333,0.210,0.341,0.325,0.309,0.170,0.102,west-southwest,3.5,No
2017/12/08,01:00,0.334,0.211,0.341,0.324,0.309,0.170,0.102,west-southwest,3.4,No
2017/12/08,01:10,0.335,0.211,0.343,0.321,0.309,0.170,0.102,west-southwest,3.4,No
2017/12/08,01:20,0.335,0.211,0.343,0.323,0.310,0.170,0.100,southwest,3.0,No
2017/12/08,01:30,0.333,0.210,0.343,0.326,0.310,0.171,0.102,southwest,1.0,No
2017/12/08,01:40,0.333,0.212,0.342,0.323,0.309,0.170,0.101,south,0.9,No
2017/12/08,01:50,0.334,0.212,0.344,0.324,0.310,0.171,0.101,southwest,1.0,No
2017/12/08,02:00,0.334,0.210,0.343,0.324,0.311,0.171,0.101,west,2.4,No
2017/12/08,02:10,0.333,0.211,0.343,0.325,0.309,0.169,0.101,west,4.4,No
2017/12/08,02:20,0.333,0.210,0.343,0.324,0.310,0.170,0.101,west,5.7,No
2017/12/08,02:30,0.335,0.210,0.342,0.324,0.308,0.171,0.101,west-southwest,6.3,No
2017/12/08,02:40,0.335,0.211,0.344,0.323,0.309,0.170,0.101,west-southwest,5.5,No
2017/12/08,02:50,0.332,0.212,0.344,0.323,0.309,0.170,0.101,west-southwest,6.0,No
2017/12/08,03:00,0.333,0.211,0.343,0.323,0.309,0.170,0.101,west-southwest,4.9,No
2017/12/08,03:10,0.333,0.209,0.343,0.324,0.309,0.170,0.101,west,4.9,No
2017/12/08,03:20,0.333,0.209,0.343,0.325,0.309,0.170,0.102,west-northwest,3.0,No
2017/12/08,03:30,0.334,0.212,0.344,0.323,0.309,0.170,0.101,west,1.4,No
2017/12/08,03:40,0.335,0.211,0.343,0.323,0.310,0.171,0.101,-,CALM,No
2017/12/08,03:50,0.335,0.211,0.343,0.323,0.310,0.171,0.102,south-southwest,1.1,No
2017/12/08,04:00,0.333,0.210,0.343,0.323,0.311,0.169,0.102,north,1.1,No
2017/12/08,04:10,0.333,0.212,0.344,0.324,0.309,0.170,0.101,north-northeast,1.6,No
2017/12/08,04:20,0.335,0.210,0.344,0.324,0.309,0.170,0.101,northeast,1.7,No
2017/12/08,04:30,0.333,0.212,0.344,0.324,0.310,0.170,0.102,northeast,1.5,No
2017/12/08,04:40,0.333,0.210,0.344,0.324,0.310,0.169,0.102,northeast,1.7,No
2017/12/08,04:50,0.333,0.210,0.344,0.324,0.309,0.170,0.102,north,1.3,No
2017/12/08,05:00,0.334,0.210,0.343,0.324,0.309,0.169,0.101,northwest,1.2,No
2017/12/08,05:10,0.334,0.211,0.343,0.324,0.309,0.169,0.102,-,CALM,No
2017/12/08,05:20,0.335,0.211,0.344,0.324,0.309,0.170,0.101,north-northwest,1.2,No
2017/12/08,05:30,0.334,0.211,0.343,0.324,0.309,0.170,0.102,-,CALM,No
2017/12/08,05:40,0.333,0.211,0.343,0.323,0.309,0.170,0.101,south-southwest,0.7,No
2017/12/08,05:50,0.334,0.210,0.345,0.324,0.311,0.169,0.101,southwest,2.5,No
2017/12/08,06:00,0.332,0.209,0.343,0.324,0.309,0.171,0.102,west-southwest,3.6,No
2017/12/08,06:10,0.334,0.210,0.342,0.324,0.309,0.170,0.102,west-southwest,3.8,No
2017/12/08,06:20,0.334,0.210,0.344,0.324,0.310,0.171,0.102,west-southwest,3.4,No
2017/12/08,06:30,0.334,0.211,0.344,0.323,0.311,0.171,0.103,west-southwest,2.9,No
2017/12/08,06:40,0.334,0.211,0.343,0.322,0.309,0.170,0.102,west,3.8,No
2017/12/08,06:50,0.335,0.210,0.344,0.326,0.309,0.171,0.102,southwest,1.4,No
2017/12/08,07:00,0.334,0.210,0.343,0.323,0.310,0.171,0.102,south-southwest,2.0,No
2017/12/08,07:10,0.335,0.211,0.344,0.324,0.311,0.171,0.101,southwest,1.7,No
2017/12/08,07:20,0.333,0.211,0.344,0.323,0.309,0.171,0.101,west,3.7,No
2017/12/08,07:30,0.334,0.211,0.343,0.323,0.309,0.170,0.102,west-northwest,3.2,No
2017/12/08,07:40,0.334,0.211,0.344,0.325,0.309,0.170,0.101,northwest,3.8,No
2017/12/08,07:50,0.335,0.212,0.342,0.324,0.309,0.170,0.102,northwest,4.2,No
2017/12/08,08:00,0.334,0.210,0.343,0.322,0.310,0.170,0.101,north-northwest,4.6,No
2017/12/08,08:10,0.333,0.212,0.344,0.324,0.311,0.171,0.102,north-northeast,3.6,No
2017/12/08,08:20,0.334,0.211,0.343,0.324,0.311,0.170,0.102,north-northeast,4.3,No
2017/12/08,08:30,0.333,0.211,0.343,0.322,0.309,0.170,0.101,north-northeast,3.1,No
2017/12/08,08:40,0.333,0.209,0.343,0.325,0.309,0.170,0.102,north,3.0,No
2017/12/08,08:50,0.334,0.211,0.344,0.324,0.311,0.171,0.102,north,4.6,No
2017/12/08,09:00,0.334,0.211,0.343,0.323,0.309,0.170,0.101,north,4.9,No
2017/12/08,09:10,0.334,0.211,0.342,0.324,0.310,0.170,0.102,north,4.5,No
2017/12/08,09:20,0.333,0.211,0.343,0.323,0.311,0.171,0.101,north,4.2,No
2017/12/08,09:30,0.333,0.210,0.342,0.324,0.309,0.170,0.102,north,4.1,No
2017/12/08,09:40,0.332,0.209,0.343,0.324,0.312,0.170,0.102,north,2.1,No
2017/12/08,09:50,0.334,0.210,0.344,0.324,0.308,0.170,0.102,north,1.4,No
2017/12/08,10:00,0.334,0.212,0.342,0.323,0.311,0.171,0.102,north,3.1,No
2017/12/08,10:10,0.333,0.210,0.342,0.324,0.311,0.171,0.101,north,1.7,No
2017/12/08,10:20,0.335,0.210,0.344,0.322,0.310,0.171,0.101,north,1.8,No
2017/12/08,10:30,0.335,0.209,0.343,0.326,0.311,0.171,0.102,north,2.6,No
2017/12/08,10:40,0.334,0.211,0.343,0.322,0.312,0.170,0.102,north,1.8,No
2017/12/08,10:50,0.334,0.210,0.344,0.324,0.309,0.172,0.101,north,1.8,No
2017/12/08,11:00,0.333,0.211,0.344,0.323,0.312,0.170,0.102,north,6.2,No
2017/12/08,11:10,0.334,0.211,0.342,0.322,0.310,0.171,0.101,north-northeast,6.5,No
2017/12/08,11:20,0.336,0.212,0.344,0.325,0.311,0.171,0.101,north-northeast,8.2,No
2017/12/08,11:30,0.333,0.211,0.343,0.324,0.311,0.171,0.102,north-northeast,7.3,No
2017/12/08,11:40,0.333,0.212,0.343,0.324,0.310,0.171,0.102,north-northeast,6.2,No
2017/12/08,11:50,0.334,0.211,0.343,0.324,0.312,0.170,0.101,north,6.5,No
2017/12/08,12:00,0.334,0.210,0.345,0.323,0.312,0.172,0.101,north-northeast,7.3,No
2017/12/08,12:10,0.334,0.211,0.343,0.324,0.311,0.171,0.101,north-northeast,6.2,No
2017/12/08,12:20,0.335,0.211,0.344,0.324,0.312,0.170,0.101,north-northeast,7.1,No
2017/12/08,12:30,0.335,0.210,0.343,0.324,0.310,0.171,0.101,north,6.5,No
2017/12/08,12:40,0.334,0.212,0.342,0.324,0.311,0.171,0.101,north-northeast,7.1,No
2017/12/08,12:50,0.335,0.211,0.345,0.324,0.312,0.170,0.101,north-northeast,6.4,No
2017/12/08,13:00,0.334,0.211,0.342,0.325,0.311,0.170,0.101,north-northeast,5.4,No
2017/12/08,13:10,0.334,0.211,0.343,0.326,0.312,0.171,0.101,north-northeast,4.1,No
2017/12/08,13:20,0.335,0.211,0.344,0.324,0.311,0.171,0.102,north,7.3,No
2017/12/08,13:30,0.334,0.211,0.344,0.325,0.310,0.170,0.101,north-northeast,9.6,No
2017/12/08,13:40,0.335,0.211,0.343,0.325,0.314,0.171,0.101,north-northeast,5.6,No
2017/12/08,13:50,0.336,0.211,0.344,0.324,0.311,0.171,0.101,north,5.3,No
2017/12/08,14:00,0.334,0.211,0.345,0.324,0.312,0.172,0.102,north,5.5,No
2017/12/08,14:10,0.333,0.211,0.343,0.324,0.311,0.171,0.101,north,4.8,No
2017/12/08,14:20,0.336,0.210,0.345,0.325,0.310,0.172,0.102,north,5.2,No
2017/12/08,14:30,0.334,0.211,0.346,0.324,0.310,0.170,0.101,north,5.5,No
2017/12/08,14:40,0.334,0.211,0.342,0.324,0.311,0.171,0.102,north,4.8,No
2017/12/08,14:50,0.336,0.211,0.346,0.325,0.312,0.170,0.101,north,6.3,No
2017/12/08,15:00,0.336,0.212,0.346,0.326,0.310,0.172,0.102,north,6.3,No
2017/12/08,15:10,0.336,0.211,0.344,0.327,0.314,0.172,0.102,north,8.3,No
2017/12/08,15:20,0.335,0.212,0.345,0.327,0.312,0.172,0.101,north,7.3,No
2017/12/08,15:30,0.337,0.212,0.347,0.326,0.313,0.172,0.102,north-northwest,6.2,No
2017/12/08,15:40,0.336,0.212,0.345,0.325,0.313,0.171,0.102,north-northwest,6.8,No
2017/12/08,15:50,0.335,0.212,0.344,0.327,0.314,0.171,0.101,north-northwest,6.8,No
2017/12/08,16:00,0.336,0.212,0.346,0.327,0.312,0.172,0.102,north,8.1,No
2017/12/08,16:10,0.334,0.212,0.346,0.326,0.312,0.172,0.102,north,7.8,No
2017/12/08,16:20,0.336,0.213,0.345,0.325,0.312,0.172,0.102,north-northwest,7.1,No
2017/12/08,16:30,0.334,0.211,0.345,0.327,0.312,0.171,0.102,north-northwest,9.8,No
2017/12/08,16:40,0.336,0.212,0.345,0.326,0.311,0.172,0.101,north-northwest,10.1,No
2017/12/08,16:50,0.334,0.212,0.346,0.326,0.313,0.171,0.101,north-northwest,11.5,No
2017/12/08,17:00,0.336,0.212,0.344,0.325,0.311,0.171,0.101,north-northwest,9.6,No
2017/12/08,17:10,0.334,0.212,0.346,0.326,0.312,0.171,0.102,north,9.2,No
2017/12/08,17:20,0.336,0.211,0.344,0.325,0.311,0.172,0.102,north,11.1,No
2017/12/08,17:30,0.336,0.212,0.345,0.325,0.313,0.173,0.102,north-northwest,9.5,No
2017/12/08,17:40,0.334,0.212,0.345,0.324,0.312,0.172,0.102,north-northwest,10.0,No
2017/12/08,17:50,0.336,0.212,0.346,0.324,0.314,0.172,0.102,north-northwest,10.1,No
2017/12/08,18:00,0.336,0.211,0.345,0.326,0.313,0.171,0.102,north,11.8,No
2017/12/08,18:10,0.336,0.212,0.346,0.324,0.314,0.172,0.102,north-northwest,12.1,No
2017/12/08,18:20,0.337,0.212,0.347,0.326,0.314,0.173,0.103,north-northwest,11.1,Yes
2017/12/08,18:30,0.339,0.214,0.349,0.329,0.316,0.172,0.104,north-northwest,9.2,Yes
2017/12/08,18:40,0.340,0.215,0.349,0.328,0.315,0.174,0.104,north-northwest,10.0,Yes
2017/12/08,18:50,0.341,0.217,0.349,0.329,0.316,0.175,0.105,north,8.4,Yes
2017/12/08,19:00,0.341,0.216,0.349,0.329,0.316,0.176,0.106,north,10.4,Yes
2017/12/08,19:10,0.340,0.217,0.350,0.331,0.315,0.176,0.106,north,9.0,Yes
2017/12/08,19:20,0.341,0.218,0.349,0.329,0.317,0.177,0.107,north,9.0,Yes
2017/12/08,19:30,0.341,0.217,0.349,0.330,0.316,0.176,0.107,north,7.8,Yes
2017/12/08,19:40,0.342,0.218,0.348,0.330,0.316,0.177,0.108,north,6.8,Yes
2017/12/08,19:50,0.342,0.219,0.352,0.330,0.315,0.177,0.108,north,6.1,Yes
2017/12/08,20:00,0.341,0.217,0.350,0.330,0.316,0.177,0.107,north,7.3,No
2017/12/08,20:10,0.341,0.218,0.349,0.328,0.315,0.175,0.106,north,7.0,No
2017/12/08,20:20,0.339,0.217,0.347,0.328,0.313,0.174,0.105,north,6.3,No
2017/12/08,20:30,0.338,0.214,0.346,0.327,0.313,0.174,0.105,north,8.1,No
2017/12/08,20:40,0.339,0.214,0.347,0.328,0.313,0.175,0.104,north,7.3,No
2017/12/08,20:50,0.337,0.213,0.347,0.327,0.314,0.173,0.103,north,9.0,No
2017/12/08,21:00,0.336,0.213,0.346,0.328,0.312,0.172,0.103,north,10.0,No
2017/12/08,21:10,0.336,0.213,0.346,0.326,0.310,0.173,0.103,north,9.5,No
2017/12/08,21:20,0.336,0.212,0.345,0.324,0.311,0.172,0.102,north,9.2,No
2017/12/08,21:30,0.335,0.212,0.346,0.325,0.311,0.171,0.103,north,8.7,No
2017/12/08,21:40,0.335,0.212,0.346,0.325,0.312,0.172,0.102,north,8.8,No
2017/12/08,21:50,0.336,0.212,0.345,0.326,0.310,0.172,0.102,north,8.3,No
2017/12/08,22:00,0.337,0.211,0.344,0.325,0.312,0.171,0.103,north,8.7,No
2017/12/08,22:10,0.336,0.210,0.345,0.326,0.310,0.171,0.103,north,7.9,No
2017/12/08,22:20,0.336,0.212,0.345,0.325,0.312,0.171,0.101,north,8.1,No
2017/12/08,22:30,0.334,0.212,0.345,0.326,0.312,0.170,0.102,north,7.0,No
2017/12/08,22:40,0.335,0.212,0.345,0.324,0.311,0.172,0.102,north,6.8,No
2017/12/08,22:50,0.336,0.212,0.346,0.325,0.312,0.171,0.102,north,7.0,No
2017/12/08,23:00,0.334,0.211,0.345,0.325,0.311,0.171,0.102,north,7.5,No
2017/12/08,23:10,0.334,0.211,0.345,0.324,0.312,0.171,0.102,north,6.3,No
2017/12/08,23:20,0.335,0.211,0.343,0.325,0.310,0.171,0.101,north,7.1,No
2017/12/08,23:30,0.336,0.210,0.344,0.325,0.311,0.172,0.102,north,7.3,No
2017/12/08,23:40,0.336,0.212,0.344,0.326,0.311,0.171,0.101,north,7.0,No
2017/12/08,23:50,0.334,0.211,0.346,0.326,0.312,0.170,0.102,north,7.6,No
